Location: East Guldeford
(50.9500°N, 0.7500°E)
Time: 09:56:20
(UTC+00:00)

Nimbus 7 Rocket - Pass Details

Date: 12 May 2021
Orbit: 922 x 965 km, 99.4° (Epoch: 16 June)

Event Time Altitude Azimuth Distance (km) Brightness Sun altitude
Rises 23:31:45 0° 17° (NNE) 3,583 8.7 -20.5°
Reaches altitude 10° 23:34:12 10° 20° (NNE) 2,638 7.7 -20.5°
Maximum altitude 23:40:04 69° 104° (ESE) 994 4.4 -20.6°
Enters shadow 23:42:20 39° 175° (S) 1,372 4.7 -20.6°
